Hourly Data Report for September 01, 2017

All times are specified in Local Standard Time (LST). Add 1 hour to adjust for Daylight Saving Time where and when it is observed.

RANKIN INLET A
NUNAVUT

62°48'38.000" N
92°06'53.000" W
32.30 m
2303405
71083
YRT

Download Data

Hourly Data (September 2017)
Hourly Data Report for September 1, 2017
Temp Definition
°C
Dew Point Temp Definition
°C
Rel Hum Definition
%
Wind Dir Definition
10's deg

Wind Spd Definition
km/h
Visibility Definition
km
Stn Press Definition
kPa
Hmdx Definition


Wind Chill Definition


Weather Definition


TIME
00:00 Legend Double Dagger 10.4 8.3 86 20 26 3.2 99.42     Smoke
01:00 Legend Double Dagger 10.2 8.4 88 20 13 4.0 99.36     Smoke
02:00 Legend Double Dagger 9.8 8.5 92 22 10 4.0 99.34     Smoke
03:00 Legend Double Dagger 10.0 8.6 91 17 7 3.2 99.24     Smoke
04:00 Legend Double Dagger 9.9 8.7 92 17 10 3.2 99.25     Smoke
05:00 Legend Double Dagger 9.5 8.6 94 18 10 4.0 99.19     Smoke
06:00 Legend Double Dagger 9.0 8.2 95 10 3 4.0 99.18     Smoke
07:00 Legend Double Dagger 8.8 8.1 95 10 9 4.0 99.16     Smoke
08:00 Legend Double Dagger 8.6 7.8 95 12 9 6.4 99.17     Smoke
09:00 Legend Double Dagger 9.2 8.3 94 12 8 6.4 99.11     Smoke
10:00 Legend Double Dagger 9.5 8.3 92 10 9 6.4 99.10     Smoke
11:00 Legend Double Dagger 10.7 8.7 87 12 10 8.1 99.07     Smoke
12:00 Legend Double Dagger 10.8 8.5 85 8 10 6.4 99.08     Smoke
13:00 Legend Double Dagger 12.7 9.3 80 7 8 6.4 99.01     Smoke
14:00 Legend Double Dagger 11.8 8.8 81 14 20 6.4 99.05     Smoke
15:00 Legend Double Dagger 10.7 8.1 84 10 20 6.4 99.08     Smoke
16:00 Legend Double Dagger 11.4 8.7 83 8 26 6.4 99.12     Smoke
17:00 Legend Double Dagger 10.0 8.0 87 7 22 8.1 99.10     Smoke
18:00 Legend Double Dagger 8.7 7.5 92 6 32 4.8 99.13     Smoke
19:00 Legend Double Dagger 8.4 7.2 92 6 25 6.4 99.10     Smoke
20:00 Legend Double Dagger 8.1 7.0 93 7 30 6.4 99.02     Smoke
21:00 Legend Double Dagger 8.0 6.9 93 7 36 8.1 99.01     Smoke
22:00 Legend Double Dagger 7.9 7.0 94 6 37 6.4 98.94     Smoke
23:00 Legend Double Dagger 7.8 7.1 95 5 40 16.1 98.91     LegendNANA

Notes on Data Quality.

Legend

  • E = Estimated
  • M = Missing
  • NA = Not Available
  • ‡ = Partner data that is not subject to review by the National Climate Archives
Date modified: